カタログに戻る

STARLINK-37235

運用中通信VLEO
NORAD 69154·PAYLOAD·🇺🇸 United States

打ち上げ May 21, 2026 から Cape Canaveral Space Force Station

Loading…

次のパス (今後24時間)

TLE

最新Source: CelesTrak SupGP

元期: Sep 14, 2026, 21:25 UTC

1 69154C 26111G   26257.89284722 -.00007160  00000+0 -21158-3 0  2572
2 69154  53.1579  92.1485 0000841  92.4048 328.5703 15.34389659    18

AllMySatでSTARLINK-37235をリアルタイム追跡

Download on the App Store